{"data":{"norad_id":45087,"epoch":"2026-05-24T23:47:59.900928Z","epoch_age_seconds":75688,"freshness":"FRESH","line1":"1 45087U 20006AV  26144.99166552  .00047214  00000+0  10130-2 0  9996","line2":"2 45087  53.1592 242.9296 0004195 332.2088  27.8694 15.44273062348847","mean_motion":15.44273062,"eccentricity":0.0004195,"inclination_deg":53.1592,"raan_deg":242.9296,"arg_perigee_deg":332.2088,"mean_anomaly_deg":27.8694,"bstar":0.001013,"rev_number":34884,"period_min":93.247757500545,"perigee_km":430.65738546366,"apogee_km":436.37236138546,"semimajor_km":6811.6518734246,"source":"CELESTRAK","updated_at":"2026-05-25T13:38:16.380047Z"}}